Overview Statistics Trail Chart Weather Telemetry Raw packets
 

This is the latest recevied weather packets stored in our database for station/object DK6GC-10. If no packets are shown the sender has not sent any weather packets the latest 10 day(s).

<< 1 2 3 4 >>
Time Temp. Humidity Pressure Rain* Wind** Luminosity Snow
1788710426 25.56° C 40% 1023.6 hPa - - - -
1788709525 26.11° C 40% 1023.5 hPa - - - -
1788708625 25.56° C 40% 1023.6 hPa - - - -
1788707725 26.11° C 41% 1023.7 hPa - - - -
1788706825 26.67° C 39% 1023.9 hPa - - - -
1788705925 27.22° C 39% 1024 hPa - - - -
1788705024 26.67° C 40% 1024 hPa - - - -
1788704124 26.67° C 40% 1024.2 hPa - - - -
1788703224 26.11° C 41% 1024.3 hPa - - - -
1788702324 26.11° C 43% 1024.5 hPa - - - -
1788701424 26.11° C 41% 1024.8 hPa - - - -
1788700524 26.67° C 41% 1024.9 hPa - - - -
1788699623 26.67° C 42% 1025.1 hPa - - - -
1788698723 26.11° C 41% 1025.2 hPa - - - -
1788697823 26.11° C 41% 1025.6 hPa - - - -
1788696922 26.11° C 40% 1025.6 hPa - - - -
1788696028 26.11° C 42% 1025.8 hPa - - - -
1788695127 25° C 40% 1025.9 hPa - - - -
1788694231 25.56° C 41% 1026.1 hPa - - - -
1788693327 26.11° C 43% 1026.3 hPa - - - -
1788692457 25° C 43% 1026.4 hPa - - - -
1788691526 24.44° C 45% 1026.6 hPa - - - -
1788690626 23.33° C 46% 1026.6 hPa - - - -
1788689725 23.89° C 45% 1026.9 hPa - - - -
1788688848 23.33° C 54% 1027.2 hPa - - - -

* Rain since midnight (hover to see other rain measurements)
** Current wind speed in m/s (hover to see current wind gust speed)